Retour au catalogue

STARLINK-3794

ActifCommunicationsVLEO
NORAD 52631·PAYLOAD·🇺🇸 United States

Lancé May 14, 2022 depuis Cape Canaveral Space Force Station

Loading…

Prochains Passages (prochaines 24 heures)

TLE

FraisSource: CelesTrak SupGP

Époque: Sep 14, 2026, 21:14 UTC

1 52631C 22052AK  26257.88520833 -.00026723  00000+0 -78959-3 0  2576
2 52631  53.1575 126.2775 0001272  90.6611  16.5569 15.34401539    18

Suivez STARLINK-3794 en temps réel avec AllMySat

Download on the App Store